Regional Weather Roundup
Issued by NWS

Home | Current Version | Previous Version | Graphics & Text | Print | Product List | Glossary On
Versions: 1 2 3 4 5 6 7 8 9 10 11 12 13 14 15 16 17 18 19 20 21 22 23 24 25 26 27 28 29 30 31 32 33 34 35 36 37 38 39 40 41 42 43 44 45 46 47 48 49 50
380
ASUS43 KIND 281259
RWRIN

WEATHER ROUNDUP FOR INDIANA
NATIONAL WEATHER SERVICE INDIANAPOLIS IN
900 AM EDT THU APR 28 2016

NOTE: "FAIR" INDICATES FEW OR NO CLOUDS BELOW 12,000 FEET WITH NO
SIGNIFICANT WEATHER AND/OR OBSTRUCTIONS TO VISIBILITY.

* - STATION DOES NOT REPORT WEATHER SUCH AS PRECIPITATION OR FOG.

+ - STATION NOT QUALITY CONTROLLED BY THE NATIONAL WEATHER SERVICE.
    USE DATA WITH CAUTION...ESPECIALLY DEWPOINT AND RELATIVE
    HUMIDITY OBSERVATIONS.

INZ001>003-010>013-019-020-281400-
NORTHWEST INDIANA

CITY           SKY/WX    TMP DP  RH WIND       PRES   REMARKS
GARY /AIRPORT/ CLOUDY    48  48 100 SE8       29.83R
MONTICELLO +   CLOUDY    47  43  86 E7        29.81R
RENSSELAER +   CLOUDY    46  45  93 E9        29.83S FOG

$$

LMZ046-743>745-281400-
SOUTHERN LAKE MICHIGAN

STATION/POSITION TIME  TEMP    WIND        PRES    WAVE
                       AIR SEA DIR/SP/G            HT
                 (UTC) (F)     (DEG/KT/KT) (MB)    (FT)
BURNS HARBOR     1207   46      90/ 15/ 24 1009.5F
MICHIGAN CITY    1220   44      50/ 17/ 20   N/A

$$

INZ004-005-014>016-021>024-281400-
NORTH CENTRAL INDIANA

CITY           SKY/WX    TMP DP  RH WIND       PRES   REMARKS
GOSHEN         LGT RAIN  42  38  85 E16G28    29.85F
PERU/GRISSOM   CLOUDY    46  45  93 E15       29.80R
SOUTH BEND     LGT RAIN  42  37  82 E15G22    29.84F

$$

INZ006>009-017-018-025>027-281400-
NORTHEAST INDIANA

CITY           SKY/WX    TMP DP  RH WIND       PRES   REMARKS
ANGOLA *+      CLOUDY    41  36  81 E15       29.92R
FORT WAYNE     LGT RAIN  44  41  89 E16       29.89F

$$

INZ028-029-035-036-043>045-051>053-281400-
WEST CENTRAL INDIANA

CITY           SKY/WX    TMP DP  RH WIND       PRES   REMARKS
CRAWFORDSVL +  MOSUNNY   53  53 100 E6        29.79R
GREENCASTLE +  MOSUNNY   59  59 100 E7        29.79S
LAFAYETTE      CLOUDY    49  47  93 E12       29.79R
TERRE HAUTE    SUNNY     60  57  89 S6        29.78R

$$

INZ030>032-037>040-046>048-054>057-064-065-281400-
CENTRAL INDIANA

CITY           SKY/WX    TMP DP  RH WIND       PRES   REMARKS
ANDERSON       CLOUDY    46  46 100 E13G18    29.83  FOG
CP ATTERBURY + CLOUDY    59  55  88 SE6       29.81F
COLUMBUS       PTSUNNY   57  57 100 E8        29.81F
INDIANAPOLIS   CLOUDY    53  51  93 E7        29.78S FOG
-EAGLE CREEK   CLOUDY    52  51  97 SE6       29.80R FOG
KOKOMO *+      CLOUDY    46  41  81 E16       29.81F
SHELBYVILLE    MOSUNNY   59  55  87 E12       29.79S

$$

INZ033-034-041-042-049-050-058-059-281400-
EAST CENTRAL INDIANA

CITY           SKY/WX    TMP DP  RH WIND       PRES   REMARKS
MUNCIE         LGT RAIN  47  43  86 E12       29.84F

$$

INZ060-061-067>069-081>083-085>088-281400-
SOUTHWEST INDIANA

CITY           SKY/WX    TMP DP  RH WIND       PRES   REMARKS
EVANSVILLE     SUNNY     64  59  83 SW7       29.81R
HUNTINGBURG *+ PTSUNNY   64  63  94 S8        29.81R

$$

INZ062-063-066-070>080-084-089>092-281400-
SOUTH CENTRAL AND SOUTHEAST INDIANA

CITY           SKY/WX    TMP DP  RH WIND       PRES   REMARKS
BLOOMINGTON    CLOUDY    62  60  93 SE7       29.80R
MADISON *+     CLOUDY    61  59  94 S5        29.83S
SEYMOUR +      CLOUDY    64  63  94 CALM      29.81R

$$





USA.gov is the U.S. government's official web portal to all federal, state and local government web resources and services.